Year,Month,Day,Hour,Minute,Value (Times are PST for temperature in C)
2014,07,11,00,00,15.00
2014,07,11,00,01,15.00
2014,07,11,00,02,15.00
2014,07,11,00,03,15.00
2014,07,11,00,04,14.90
2014,07,11,00,05,14.90
2014,07,11,00,06,14.90
2014,07,11,00,07,14.90
2014,07,11,00,08,14.80
2014,07,11,00,09,14.80
2014,07,11,00,10,14.80
2014,07,11,00,11,14.80
2014,07,11,00,12,14.80
2014,07,11,00,13,14.80
2014,07,11,00,14,14.80
2014,07,11,00,15,14.80
2014,07,11,00,16,14.80
2014,07,11,00,17,14.80
2014,07,11,00,18,14.70
2014,07,11,00,19,14.70
2014,07,11,00,20,14.70
2014,07,11,00,21,14.70
2014,07,11,00,22,14.70
2014,07,11,00,23,14.60
2014,07,11,00,24,14.60
2014,07,11,00,25,14.60
2014,07,11,00,26,14.60
2014,07,11,00,27,14.60
2014,07,11,00,28,14.60
2014,07,11,00,29,14.50
2014,07,11,00,30,14.50
2014,07,11,00,31,14.50
2014,07,11,00,32,14.50
2014,07,11,00,33,14.40
2014,07,11,00,34,14.40
2014,07,11,00,35,14.40
2014,07,11,00,36,14.40
2014,07,11,00,37,14.40
2014,07,11,00,38,14.40
2014,07,11,00,39,14.40
2014,07,11,00,40,14.40
2014,07,11,00,41,14.40
2014,07,11,00,42,14.40
2014,07,11,00,43,14.30
2014,07,11,00,44,14.30
2014,07,11,00,45,14.30
2014,07,11,00,46,14.30
2014,07,11,00,47,14.30
2014,07,11,00,48,14.30
2014,07,11,00,49,14.30
2014,07,11,00,50,14.30
2014,07,11,00,51,14.30
2014,07,11,00,52,14.30
2014,07,11,00,53,14.30
2014,07,11,00,54,14.30
2014,07,11,00,55,14.30
2014,07,11,00,56,14.30
2014,07,11,00,57,14.30
2014,07,11,00,58,14.20
2014,07,11,00,59,14.20
2014,07,11,01,00,14.20
2014,07,11,01,01,14.20
2014,07,11,01,02,14.20
2014,07,11,01,03,14.20
2014,07,11,01,04,14.20
2014,07,11,01,05,14.20
2014,07,11,01,06,14.10
2014,07,11,01,07,14.10
2014,07,11,01,08,14.10
2014,07,11,01,09,14.10
2014,07,11,01,10,14.10
2014,07,11,01,11,14.10
2014,07,11,01,12,14.10
2014,07,11,01,13,14.00
2014,07,11,01,14,14.00
2014,07,11,01,15,14.00
2014,07,11,01,16,14.00
2014,07,11,01,17,14.00
2014,07,11,01,18,14.00
2014,07,11,01,19,13.90
2014,07,11,01,20,13.90
2014,07,11,01,21,13.90
2014,07,11,01,22,13.90
2014,07,11,01,23,13.90
2014,07,11,01,24,13.90
2014,07,11,01,25,13.90
2014,07,11,01,26,13.90
2014,07,11,01,27,13.90
2014,07,11,01,28,13.90
2014,07,11,01,29,13.90
2014,07,11,01,30,13.90
2014,07,11,01,31,13.90
2014,07,11,01,32,13.90
2014,07,11,01,33,13.90
2014,07,11,01,34,13.90
2014,07,11,01,35,13.80
2014,07,11,01,36,13.80
2014,07,11,01,37,13.80
2014,07,11,01,38,13.80
2014,07,11,01,39,13.80
2014,07,11,01,40,13.70
2014,07,11,01,41,13.70
2014,07,11,01,42,13.70
2014,07,11,01,43,13.70
2014,07,11,01,44,13.70
2014,07,11,01,45,13.70
2014,07,11,01,46,13.70
2014,07,11,01,47,13.70
2014,07,11,01,48,13.70
2014,07,11,01,49,13.70
2014,07,11,01,50,13.70
2014,07,11,01,51,13.70
2014,07,11,01,52,13.70
2014,07,11,01,53,13.70
2014,07,11,01,54,13.70
2014,07,11,01,55,13.70
2014,07,11,01,56,13.70
2014,07,11,01,57,13.70
2014,07,11,01,58,13.70
2014,07,11,01,59,13.70
2014,07,11,02,00,13.70
2014,07,11,02,01,13.70
2014,07,11,02,02,13.70
2014,07,11,02,03,13.70
2014,07,11,02,04,13.60
2014,07,11,02,05,13.60
2014,07,11,02,06,13.60
2014,07,11,02,07,13.60
2014,07,11,02,08,13.60
2014,07,11,02,09,13.60
2014,07,11,02,10,13.60
2014,07,11,02,11,13.60
2014,07,11,02,12,13.60
2014,07,11,02,13,13.60
2014,07,11,02,14,13.60
2014,07,11,02,15,13.50
2014,07,11,02,16,13.50
2014,07,11,02,17,13.50
2014,07,11,02,18,13.50
2014,07,11,02,19,13.50
2014,07,11,02,20,13.50
2014,07,11,02,21,13.50
2014,07,11,02,22,13.50
2014,07,11,02,23,13.50
2014,07,11,02,24,13.50
2014,07,11,02,25,13.50
2014,07,11,02,26,13.50
2014,07,11,02,27,13.40
2014,07,11,02,28,13.40
2014,07,11,02,29,13.40
2014,07,11,02,30,13.40
2014,07,11,02,31,13.50
2014,07,11,02,32,13.50
2014,07,11,02,33,13.50
2014,07,11,02,34,13.60
2014,07,11,02,35,13.60
2014,07,11,02,36,13.60
2014,07,11,02,37,13.60
2014,07,11,02,38,13.60
2014,07,11,02,39,13.60
2014,07,11,02,40,13.60
2014,07,11,02,41,13.50
2014,07,11,02,42,13.50
2014,07,11,02,43,13.50
2014,07,11,02,44,13.50
2014,07,11,02,45,13.40
2014,07,11,02,46,13.40
2014,07,11,02,47,13.40
2014,07,11,02,48,13.40
2014,07,11,02,49,13.40
2014,07,11,02,50,13.40
2014,07,11,02,51,13.40
2014,07,11,02,52,13.40
2014,07,11,02,53,13.40
2014,07,11,02,54,13.40
2014,07,11,02,55,13.40
2014,07,11,02,56,13.40
2014,07,11,02,57,13.40
2014,07,11,02,58,13.40
2014,07,11,02,59,13.40
2014,07,11,03,00,13.40
2014,07,11,03,01,13.40
2014,07,11,03,02,13.40
2014,07,11,03,03,13.40
2014,07,11,03,04,13.40
2014,07,11,03,05,13.40
2014,07,11,03,06,13.40
2014,07,11,03,07,13.40
2014,07,11,03,08,13.40
2014,07,11,03,09,13.40
2014,07,11,03,10,13.40
2014,07,11,03,11,13.30
2014,07,11,03,12,13.30
2014,07,11,03,13,13.30
2014,07,11,03,14,13.30
2014,07,11,03,15,13.30
2014,07,11,03,16,13.30
2014,07,11,03,17,13.30
2014,07,11,03,18,13.30
2014,07,11,03,19,13.30
2014,07,11,03,20,13.30
2014,07,11,03,21,13.30
2014,07,11,03,22,13.30
2014,07,11,03,23,13.30
2014,07,11,03,24,13.30
2014,07,11,03,25,13.30
2014,07,11,03,26,13.30
2014,07,11,03,27,13.30
2014,07,11,03,28,13.20
2014,07,11,03,29,13.30
2014,07,11,03,30,13.30
2014,07,11,03,31,13.30
2014,07,11,03,32,13.20
2014,07,11,03,33,13.20
2014,07,11,03,34,13.20
2014,07,11,03,35,13.20
2014,07,11,03,36,13.20
2014,07,11,03,37,13.20
2014,07,11,03,38,13.20
2014,07,11,03,39,13.20
2014,07,11,03,40,13.20
2014,07,11,03,41,13.20
2014,07,11,03,42,13.20
2014,07,11,03,43,13.20
2014,07,11,03,44,13.20
2014,07,11,03,45,13.20
2014,07,11,03,46,13.20
2014,07,11,03,47,13.20
2014,07,11,03,48,13.20
2014,07,11,03,49,13.20
2014,07,11,03,50,13.20
2014,07,11,03,51,13.20
2014,07,11,03,52,13.20
2014,07,11,03,53,13.20
2014,07,11,03,54,13.20
2014,07,11,03,55,13.20
2014,07,11,03,56,13.20
2014,07,11,03,57,13.20
2014,07,11,03,58,13.20
2014,07,11,03,59,13.20
2014,07,11,04,00,13.20
2014,07,11,04,01,13.20
2014,07,11,04,02,13.20
2014,07,11,04,03,13.20
2014,07,11,04,04,13.20
2014,07,11,04,05,13.20
2014,07,11,04,06,13.20
2014,07,11,04,07,13.20
2014,07,11,04,08,13.20
2014,07,11,04,09,13.20
2014,07,11,04,10,13.20
2014,07,11,04,11,13.20
2014,07,11,04,12,13.20
2014,07,11,04,13,13.20
2014,07,11,04,14,13.20
2014,07,11,04,15,13.20
2014,07,11,04,16,13.20
2014,07,11,04,17,13.20
2014,07,11,04,18,13.20
2014,07,11,04,19,13.20
2014,07,11,04,20,13.20
2014,07,11,04,21,13.20
2014,07,11,04,22,13.10
2014,07,11,04,23,13.10
2014,07,11,04,24,13.10
2014,07,11,04,25,13.10
2014,07,11,04,26,13.20
2014,07,11,04,27,13.20
2014,07,11,04,28,13.20
2014,07,11,04,29,13.20
2014,07,11,04,30,13.20
2014,07,11,04,31,13.20
2014,07,11,04,32,13.30
2014,07,11,04,33,13.30
2014,07,11,04,34,13.30
2014,07,11,04,35,13.30
2014,07,11,04,36,13.30
2014,07,11,04,37,13.30
2014,07,11,04,38,13.30
2014,07,11,04,39,13.30
2014,07,11,04,40,13.30
2014,07,11,04,41,13.30
2014,07,11,04,42,13.30
2014,07,11,04,43,13.30
2014,07,11,04,44,13.30
2014,07,11,04,45,13.20
2014,07,11,04,46,13.20
2014,07,11,04,47,13.20
2014,07,11,04,48,13.20
2014,07,11,04,49,13.20
2014,07,11,04,50,13.20
2014,07,11,04,51,13.20
2014,07,11,04,52,13.20
2014,07,11,04,53,13.20
2014,07,11,04,54,13.20
2014,07,11,04,55,13.20
2014,07,11,04,56,13.20
2014,07,11,04,57,13.20
2014,07,11,04,58,13.20
2014,07,11,04,59,13.10
2014,07,11,05,00,13.10
2014,07,11,05,01,13.10
2014,07,11,05,02,13.10
2014,07,11,05,03,13.10
2014,07,11,05,04,13.10
2014,07,11,05,05,13.10
2014,07,11,05,06,13.10
2014,07,11,05,07,13.10
2014,07,11,05,08,13.10
2014,07,11,05,09,13.10
2014,07,11,05,10,13.10
2014,07,11,05,11,13.10
2014,07,11,05,12,13.10
2014,07,11,05,13,13.10
2014,07,11,05,14,13.10
2014,07,11,05,15,13.10
2014,07,11,05,16,13.10
2014,07,11,05,17,13.10
2014,07,11,05,18,13.10
2014,07,11,05,19,13.10
2014,07,11,05,20,13.10
2014,07,11,05,21,13.20
2014,07,11,05,22,13.20
2014,07,11,05,23,13.20
2014,07,11,05,24,13.20
2014,07,11,05,25,13.20
2014,07,11,05,26,13.20
2014,07,11,05,27,13.20
2014,07,11,05,28,13.20
2014,07,11,05,29,13.30
2014,07,11,05,30,13.30
2014,07,11,05,31,13.30
2014,07,11,05,32,13.30
2014,07,11,05,33,13.30
2014,07,11,05,34,13.30
2014,07,11,05,35,13.30
2014,07,11,05,36,13.30
2014,07,11,05,37,13.30
2014,07,11,05,38,13.30
2014,07,11,05,39,13.20
2014,07,11,05,40,13.20
2014,07,11,05,41,13.20
2014,07,11,05,42,13.20
2014,07,11,05,43,13.20
2014,07,11,05,44,13.20
2014,07,11,05,45,13.20
2014,07,11,05,46,13.20
2014,07,11,05,47,13.20
2014,07,11,05,48,13.20
2014,07,11,05,49,13.20
2014,07,11,05,50,13.20
2014,07,11,05,51,13.20
2014,07,11,05,52,13.20
2014,07,11,05,53,13.20
2014,07,11,05,54,13.20
2014,07,11,05,55,13.20
2014,07,11,05,56,13.20
2014,07,11,05,57,13.20
2014,07,11,05,58,13.20
2014,07,11,05,59,13.20
2014,07,11,06,00,13.20
2014,07,11,06,01,13.20
2014,07,11,06,02,13.20
2014,07,11,06,03,13.20
2014,07,11,06,04,13.20
2014,07,11,06,05,13.20
2014,07,11,06,06,13.30
2014,07,11,06,07,13.30
2014,07,11,06,08,13.30
2014,07,11,06,09,13.30
2014,07,11,06,10,13.30
2014,07,11,06,11,13.30
2014,07,11,06,12,13.30
2014,07,11,06,13,13.30
2014,07,11,06,14,13.40
2014,07,11,06,15,13.40
2014,07,11,06,16,13.40
2014,07,11,06,17,13.40
2014,07,11,06,18,13.50
2014,07,11,06,19,13.50
2014,07,11,06,20,13.60
2014,07,11,06,21,13.60
2014,07,11,06,22,13.60
2014,07,11,06,23,13.60
2014,07,11,06,24,13.70
2014,07,11,06,25,13.70
2014,07,11,06,26,13.80
2014,07,11,06,27,13.80
2014,07,11,06,28,13.80
2014,07,11,06,29,13.90
2014,07,11,06,30,14.00
2014,07,11,06,31,14.10
2014,07,11,06,32,14.20
2014,07,11,06,33,14.20
2014,07,11,06,34,14.30
2014,07,11,06,35,14.30
2014,07,11,06,36,14.30
2014,07,11,06,37,14.30
2014,07,11,06,38,14.40
2014,07,11,06,39,14.40
2014,07,11,06,40,14.40
2014,07,11,06,41,14.50
2014,07,11,06,42,14.50
2014,07,11,06,43,14.60
2014,07,11,06,44,14.60
2014,07,11,06,45,14.70
2014,07,11,06,46,14.70
2014,07,11,06,47,14.80
2014,07,11,06,48,14.80
2014,07,11,06,49,14.90
2014,07,11,06,50,15.00
2014,07,11,06,51,15.00
2014,07,11,06,52,15.00
2014,07,11,06,53,15.00
2014,07,11,06,54,15.10
2014,07,11,06,55,15.20
2014,07,11,06,56,15.30
2014,07,11,06,57,15.40
2014,07,11,06,58,15.50
2014,07,11,06,59,15.60
2014,07,11,07,00,15.70
2014,07,11,07,01,15.80
2014,07,11,07,02,15.90
2014,07,11,07,03,16.00
2014,07,11,07,04,16.10
2014,07,11,07,05,16.10
2014,07,11,07,06,16.20
2014,07,11,07,07,16.30
2014,07,11,07,08,16.30
2014,07,11,07,09,16.40
2014,07,11,07,10,16.50
2014,07,11,07,11,16.60
2014,07,11,07,12,16.70
2014,07,11,07,13,16.80
2014,07,11,07,14,16.80
2014,07,11,07,15,16.90
2014,07,11,07,16,17.00
2014,07,11,07,17,17.10
2014,07,11,07,18,17.20
2014,07,11,07,19,17.30
2014,07,11,07,20,17.30
2014,07,11,07,21,17.30
2014,07,11,07,22,17.20
2014,07,11,07,23,17.30
2014,07,11,07,24,17.30
2014,07,11,07,25,17.40
2014,07,11,07,26,17.40
2014,07,11,07,27,17.50
2014,07,11,07,28,17.50
2014,07,11,07,29,17.60
2014,07,11,07,30,17.60
2014,07,11,07,31,17.70
2014,07,11,07,32,17.70
2014,07,11,07,33,17.80
2014,07,11,07,34,17.80
2014,07,11,07,35,17.80
2014,07,11,07,36,17.70
2014,07,11,07,37,17.70
2014,07,11,07,38,17.80
2014,07,11,07,39,17.90
2014,07,11,07,40,18.00
2014,07,11,07,41,18.00
2014,07,11,07,42,18.10
2014,07,11,07,43,18.20
2014,07,11,07,44,18.30
2014,07,11,07,45,18.40
2014,07,11,07,46,18.50
2014,07,11,07,47,18.60
2014,07,11,07,48,18.70
2014,07,11,07,49,18.80
2014,07,11,07,50,18.90
2014,07,11,07,51,19.00
2014,07,11,07,52,19.10
2014,07,11,07,53,19.20
2014,07,11,07,54,19.20
2014,07,11,07,55,19.30
2014,07,11,07,56,19.40
2014,07,11,07,57,19.50
2014,07,11,07,58,19.60
2014,07,11,07,59,19.70
2014,07,11,08,00,19.70
2014,07,11,08,01,19.70
2014,07,11,08,02,19.70
2014,07,11,08,03,19.80
2014,07,11,08,04,19.80
2014,07,11,08,05,19.90
2014,07,11,08,06,19.90
2014,07,11,08,07,19.90
2014,07,11,08,08,20.00
2014,07,11,08,09,20.00
2014,07,11,08,10,20.00
2014,07,11,08,11,20.00
2014,07,11,08,12,20.10
2014,07,11,08,13,20.20
2014,07,11,08,14,20.20
2014,07,11,08,15,20.20
2014,07,11,08,16,20.30
2014,07,11,08,17,20.40
2014,07,11,08,18,20.40
2014,07,11,08,19,20.50
2014,07,11,08,20,20.70
2014,07,11,08,21,20.80
2014,07,11,08,22,20.90
2014,07,11,08,23,21.00
2014,07,11,08,24,21.10
2014,07,11,08,25,21.10
2014,07,11,08,26,21.10
2014,07,11,08,27,21.10
2014,07,11,08,28,21.10
2014,07,11,08,29,21.20
2014,07,11,08,30,21.20
2014,07,11,08,31,21.30
2014,07,11,08,32,21.40
2014,07,11,08,33,21.50
2014,07,11,08,34,21.60
2014,07,11,08,35,21.70
2014,07,11,08,36,21.80
2014,07,11,08,37,21.80
2014,07,11,08,38,21.80
2014,07,11,08,39,21.90
2014,07,11,08,40,21.90
2014,07,11,08,41,22.00
2014,07,11,08,42,22.00
2014,07,11,08,43,22.10
2014,07,11,08,44,22.20
2014,07,11,08,45,22.20
2014,07,11,08,46,22.10
2014,07,11,08,47,22.20
2014,07,11,08,48,22.20
2014,07,11,08,49,22.20
2014,07,11,08,50,22.20
2014,07,11,08,51,22.20
2014,07,11,08,52,22.20
2014,07,11,08,53,22.20
2014,07,11,08,54,22.30
2014,07,11,08,55,22.30
2014,07,11,08,56,22.40
2014,07,11,08,57,22.40
2014,07,11,08,58,22.50
2014,07,11,08,59,22.60
2014,07,11,09,00,22.70
2014,07,11,09,01,22.80
2014,07,11,09,02,22.80
2014,07,11,09,03,22.80
2014,07,11,09,04,22.90
2014,07,11,09,05,22.90
2014,07,11,09,06,23.00
2014,07,11,09,07,23.10
2014,07,11,09,08,23.20
2014,07,11,09,09,23.20
2014,07,11,09,10,23.20
2014,07,11,09,11,23.20
2014,07,11,09,12,23.20
2014,07,11,09,13,23.20
2014,07,11,09,14,23.30
2014,07,11,09,15,23.30
2014,07,11,09,16,23.30
2014,07,11,09,17,23.30
2014,07,11,09,18,23.30
2014,07,11,09,19,23.40
2014,07,11,09,20,23.40
2014,07,11,09,21,23.40
2014,07,11,09,22,23.40
2014,07,11,09,23,23.40
2014,07,11,09,24,23.40
2014,07,11,09,25,23.40
2014,07,11,09,26,23.30
2014,07,11,09,27,23.20
2014,07,11,09,28,23.10
2014,07,11,09,29,23.20
2014,07,11,09,30,23.20
2014,07,11,09,31,23.20
2014,07,11,09,32,23.20
2014,07,11,09,33,23.30
2014,07,11,09,34,23.40
2014,07,11,09,35,23.20
2014,07,11,09,36,23.00
2014,07,11,09,37,23.00
2014,07,11,09,38,23.10
2014,07,11,09,39,23.20
2014,07,11,09,40,23.20
2014,07,11,09,41,23.20
2014,07,11,09,42,23.10
2014,07,11,09,43,23.10
2014,07,11,09,44,23.10
2014,07,11,09,45,23.20
2014,07,11,09,46,23.10
2014,07,11,09,47,23.00
2014,07,11,09,48,22.90
2014,07,11,09,49,22.80
2014,07,11,09,50,22.80
2014,07,11,09,51,22.70
2014,07,11,09,52,22.80
2014,07,11,09,53,22.80
2014,07,11,09,54,22.80
2014,07,11,09,55,22.80
2014,07,11,09,56,22.80
2014,07,11,09,57,22.80
2014,07,11,09,58,23.00
2014,07,11,09,59,23.20
2014,07,11,10,00,23.30
2014,07,11,10,01,23.20
2014,07,11,10,02,23.20
2014,07,11,10,03,23.30
2014,07,11,10,04,23.40
2014,07,11,10,05,23.50
2014,07,11,10,06,23.60
2014,07,11,10,07,23.70
2014,07,11,10,08,23.50
2014,07,11,10,09,23.40
2014,07,11,10,10,23.40
2014,07,11,10,11,23.40
2014,07,11,10,12,23.50
2014,07,11,10,13,23.40
2014,07,11,10,14,23.40
2014,07,11,10,15,23.30
2014,07,11,10,16,23.20
2014,07,11,10,17,23.20
2014,07,11,10,18,23.20
2014,07,11,10,19,23.30
2014,07,11,10,20,23.50
2014,07,11,10,21,23.50
2014,07,11,10,22,23.50
2014,07,11,10,23,23.60
2014,07,11,10,24,23.60
2014,07,11,10,25,23.60
2014,07,11,10,26,23.70
2014,07,11,10,27,23.80
2014,07,11,10,28,23.90
2014,07,11,10,29,24.00
2014,07,11,10,30,24.10
2014,07,11,10,31,24.20
2014,07,11,10,32,24.30
2014,07,11,10,33,24.40
2014,07,11,10,34,24.50
2014,07,11,10,35,24.50
2014,07,11,10,36,24.40
2014,07,11,10,37,24.40
2014,07,11,10,38,24.30
2014,07,11,10,39,24.30
2014,07,11,10,40,24.40
2014,07,11,10,41,24.50
2014,07,11,10,42,24.60
2014,07,11,10,43,24.70
2014,07,11,10,44,24.70
2014,07,11,10,45,24.70
2014,07,11,10,46,24.70
2014,07,11,10,47,24.80
2014,07,11,10,48,24.80
2014,07,11,10,49,24.80
2014,07,11,10,50,24.80
2014,07,11,10,51,24.90
2014,07,11,10,52,24.90
2014,07,11,10,53,24.90
2014,07,11,10,54,24.80
2014,07,11,10,55,24.70
2014,07,11,10,56,24.70
2014,07,11,10,57,24.70
2014,07,11,10,58,24.60
2014,07,11,10,59,24.60
2014,07,11,11,00,24.70
2014,07,11,11,01,24.70
2014,07,11,11,02,24.60
2014,07,11,11,03,24.50
2014,07,11,11,04,24.60
2014,07,11,11,05,24.70
2014,07,11,11,06,24.80
2014,07,11,11,07,24.90
2014,07,11,11,08,25.00
2014,07,11,11,09,25.10
2014,07,11,11,10,25.20
2014,07,11,11,11,25.30
2014,07,11,11,12,25.30
2014,07,11,11,13,25.30
2014,07,11,11,14,25.30
2014,07,11,11,15,25.30
2014,07,11,11,16,25.30
2014,07,11,11,17,25.30
2014,07,11,11,18,25.30
2014,07,11,11,19,25.30
2014,07,11,11,20,25.30
2014,07,11,11,21,25.20
2014,07,11,11,22,25.20
2014,07,11,11,23,25.10
2014,07,11,11,24,25.10
2014,07,11,11,25,25.00
2014,07,11,11,26,24.90
2014,07,11,11,27,24.90
2014,07,11,11,28,24.90
2014,07,11,11,29,24.90
2014,07,11,11,30,25.00
2014,07,11,11,31,25.10
2014,07,11,11,32,25.10
2014,07,11,11,33,25.20
2014,07,11,11,34,25.20
2014,07,11,11,35,25.20
2014,07,11,11,36,25.20
2014,07,11,11,37,25.20
2014,07,11,11,38,25.20
2014,07,11,11,39,25.30
2014,07,11,11,40,25.30
2014,07,11,11,41,25.30
2014,07,11,11,42,25.40
2014,07,11,11,43,25.40
2014,07,11,11,44,25.40
2014,07,11,11,45,25.40
2014,07,11,11,46,25.40
2014,07,11,11,47,25.50
2014,07,11,11,48,25.40
2014,07,11,11,49,25.40
2014,07,11,11,50,25.40
2014,07,11,11,51,25.40
2014,07,11,11,52,25.40
2014,07,11,11,53,25.40
2014,07,11,11,54,25.40
2014,07,11,11,55,25.40
2014,07,11,11,56,25.40
2014,07,11,11,57,25.30
2014,07,11,11,58,25.40
2014,07,11,11,59,25.40
2014,07,11,12,00,25.50
2014,07,11,12,01,25.50
2014,07,11,12,02,25.60
2014,07,11,12,03,25.70
2014,07,11,12,04,25.80
2014,07,11,12,05,25.90
2014,07,11,12,06,25.90
2014,07,11,12,07,25.90
2014,07,11,12,08,25.90
2014,07,11,12,09,25.90
2014,07,11,12,10,26.00
2014,07,11,12,11,25.90
2014,07,11,12,12,25.90
2014,07,11,12,13,25.80
2014,07,11,12,14,25.80
2014,07,11,12,15,25.80
2014,07,11,12,16,25.80
2014,07,11,12,17,25.80
2014,07,11,12,18,25.90
2014,07,11,12,19,25.90
2014,07,11,12,20,25.90
2014,07,11,12,21,25.90
2014,07,11,12,22,25.90
2014,07,11,12,23,25.90
2014,07,11,12,24,25.90
2014,07,11,12,25,25.90
2014,07,11,12,26,25.90
2014,07,11,12,27,25.90
2014,07,11,12,28,26.00
2014,07,11,12,29,26.20
2014,07,11,12,30,26.10
2014,07,11,12,31,26.10
2014,07,11,12,32,26.20
2014,07,11,12,33,26.20
2014,07,11,12,34,26.20
2014,07,11,12,35,26.20
2014,07,11,12,36,26.30
2014,07,11,12,37,26.40
2014,07,11,12,38,26.40
2014,07,11,12,39,26.50
2014,07,11,12,40,26.60
2014,07,11,12,41,26.50
2014,07,11,12,42,26.60
2014,07,11,12,43,26.50
2014,07,11,12,44,26.40
2014,07,11,12,45,26.30
2014,07,11,12,46,26.40
2014,07,11,12,47,26.40
2014,07,11,12,48,26.40
2014,07,11,12,49,26.30
2014,07,11,12,50,26.40
2014,07,11,12,51,26.40
2014,07,11,12,52,26.40
2014,07,11,12,53,26.40
2014,07,11,12,54,26.40
2014,07,11,12,55,26.40
2014,07,11,12,56,26.40
2014,07,11,12,57,26.40
2014,07,11,12,58,26.40
2014,07,11,12,59,26.40
2014,07,11,13,00,26.40
2014,07,11,13,01,26.40
2014,07,11,13,02,26.40
2014,07,11,13,03,26.50
2014,07,11,13,04,26.50
2014,07,11,13,05,26.60
2014,07,11,13,06,26.70
2014,07,11,13,07,26.80
2014,07,11,13,08,26.90
2014,07,11,13,09,26.90
2014,07,11,13,10,27.00
2014,07,11,13,11,27.10
2014,07,11,13,12,27.10
2014,07,11,13,13,27.20
2014,07,11,13,14,27.20
2014,07,11,13,15,27.20
2014,07,11,13,16,27.20
2014,07,11,13,17,27.20
2014,07,11,13,18,27.10
2014,07,11,13,19,27.00
2014,07,11,13,20,26.90
2014,07,11,13,21,26.80
2014,07,11,13,22,26.70
2014,07,11,13,23,26.70
2014,07,11,13,24,26.70
2014,07,11,13,25,26.70
2014,07,11,13,26,26.80
2014,07,11,13,27,26.70
2014,07,11,13,28,26.80
2014,07,11,13,29,26.80
2014,07,11,13,30,26.80
2014,07,11,13,31,26.80
2014,07,11,13,32,26.80
2014,07,11,13,33,26.70
2014,07,11,13,34,26.60
2014,07,11,13,35,26.50
2014,07,11,13,36,26.30
2014,07,11,13,37,26.20
2014,07,11,13,38,26.20
2014,07,11,13,39,26.20
2014,07,11,13,40,26.20
2014,07,11,13,41,26.20
2014,07,11,13,42,26.20
2014,07,11,13,43,26.10
2014,07,11,13,44,26.10
2014,07,11,13,45,26.10
2014,07,11,13,46,26.10
2014,07,11,13,47,26.10
2014,07,11,13,48,26.10
2014,07,11,13,49,26.10
2014,07,11,13,50,26.10
2014,07,11,13,51,26.10
2014,07,11,13,52,26.10
2014,07,11,13,53,26.20
2014,07,11,13,54,26.20
2014,07,11,13,55,26.30
2014,07,11,13,56,26.40
2014,07,11,13,57,26.40
2014,07,11,13,58,26.50
2014,07,11,13,59,26.50
2014,07,11,14,00,26.60
2014,07,11,14,01,26.70
2014,07,11,14,02,26.70
2014,07,11,14,03,26.80
2014,07,11,14,04,26.80
2014,07,11,14,05,26.80
2014,07,11,14,06,26.80
2014,07,11,14,07,26.70
2014,07,11,14,08,26.60
2014,07,11,14,09,26.50
2014,07,11,14,10,26.50
2014,07,11,14,11,26.60
2014,07,11,14,12,26.60
2014,07,11,14,13,26.60
2014,07,11,14,14,26.60
2014,07,11,14,15,26.60
2014,07,11,14,16,26.60
2014,07,11,14,17,26.60
2014,07,11,14,18,26.50
2014,07,11,14,19,26.50
2014,07,11,14,20,26.50
2014,07,11,14,21,26.50
2014,07,11,14,22,26.60
2014,07,11,14,23,26.50
2014,07,11,14,24,26.40
2014,07,11,14,25,26.40
2014,07,11,14,26,26.30
2014,07,11,14,27,26.40
2014,07,11,14,28,26.50
2014,07,11,14,29,26.50
2014,07,11,14,30,26.60
2014,07,11,14,31,26.60
2014,07,11,14,32,26.70
2014,07,11,14,33,26.80
2014,07,11,14,34,26.80
2014,07,11,14,35,26.80
2014,07,11,14,36,26.70
2014,07,11,14,37,26.60
2014,07,11,14,38,26.50
2014,07,11,14,39,26.40
2014,07,11,14,40,26.40
2014,07,11,14,41,26.30
2014,07,11,14,42,26.30
2014,07,11,14,43,26.30
2014,07,11,14,44,26.30
2014,07,11,14,45,26.40
2014,07,11,14,46,26.40
2014,07,11,14,47,26.40
2014,07,11,14,48,26.40
2014,07,11,14,49,26.40
2014,07,11,14,50,26.50
2014,07,11,14,51,26.70
2014,07,11,14,52,26.80
2014,07,11,14,53,26.90
2014,07,11,14,54,27.00
2014,07,11,14,55,27.00
2014,07,11,14,56,26.90
2014,07,11,14,57,26.90
2014,07,11,14,58,26.90
2014,07,11,14,59,26.90
2014,07,11,15,00,26.90
2014,07,11,15,01,26.90
2014,07,11,15,02,26.90
2014,07,11,15,03,26.90
2014,07,11,15,04,27.00
2014,07,11,15,05,27.10
2014,07,11,15,06,27.10
2014,07,11,15,07,27.10
2014,07,11,15,08,27.00
2014,07,11,15,09,27.00
2014,07,11,15,10,26.90
2014,07,11,15,11,26.90
2014,07,11,15,12,26.90
2014,07,11,15,13,26.90
2014,07,11,15,14,26.90
2014,07,11,15,15,26.80
2014,07,11,15,16,26.80
2014,07,11,15,17,26.70
2014,07,11,15,18,26.80
2014,07,11,15,19,26.80
2014,07,11,15,20,26.90
2014,07,11,15,21,27.00
2014,07,11,15,22,27.10
2014,07,11,15,23,27.20
2014,07,11,15,24,27.20
2014,07,11,15,25,27.30
2014,07,11,15,26,27.40
2014,07,11,15,27,27.40
2014,07,11,15,28,27.40
2014,07,11,15,29,27.30
2014,07,11,15,30,27.20
2014,07,11,15,31,27.20
2014,07,11,15,32,27.30
2014,07,11,15,33,27.40
2014,07,11,15,34,27.60
2014,07,11,15,35,27.70
2014,07,11,15,36,27.70
2014,07,11,15,37,27.70
2014,07,11,15,38,27.80
2014,07,11,15,39,27.80
2014,07,11,15,40,27.80
2014,07,11,15,41,27.80
2014,07,11,15,42,27.80
2014,07,11,15,43,27.80
2014,07,11,15,44,27.70
2014,07,11,15,45,27.70
2014,07,11,15,46,27.80
2014,07,11,15,47,27.80
2014,07,11,15,48,27.80
2014,07,11,15,49,27.80
2014,07,11,15,50,27.80
2014,07,11,15,51,27.90
2014,07,11,15,52,28.00
2014,07,11,15,53,28.00
2014,07,11,15,54,28.00
2014,07,11,15,55,28.00
2014,07,11,15,56,27.80
2014,07,11,15,57,27.80
2014,07,11,15,58,27.80
2014,07,11,15,59,27.70
2014,07,11,16,00,27.70
2014,07,11,16,01,27.80
2014,07,11,16,02,27.80
2014,07,11,16,03,27.80
2014,07,11,16,04,27.90
2014,07,11,16,05,27.90
2014,07,11,16,06,27.90
2014,07,11,16,07,27.80
2014,07,11,16,08,27.90
2014,07,11,16,09,27.80
2014,07,11,16,10,27.80
2014,07,11,16,11,27.70
2014,07,11,16,12,27.70
2014,07,11,16,13,27.50
2014,07,11,16,14,27.40
2014,07,11,16,15,27.20
2014,07,11,16,16,27.10
2014,07,11,16,17,27.00
2014,07,11,16,18,27.00
2014,07,11,16,19,26.80
2014,07,11,16,20,26.70
2014,07,11,16,21,26.70
2014,07,11,16,22,26.70
2014,07,11,16,23,26.60
2014,07,11,16,24,26.60
2014,07,11,16,25,26.60
2014,07,11,16,26,26.60
2014,07,11,16,27,26.60
2014,07,11,16,28,26.60
2014,07,11,16,29,26.70
2014,07,11,16,30,26.70
2014,07,11,16,31,26.80
2014,07,11,16,32,26.80
2014,07,11,16,33,26.90
2014,07,11,16,34,26.90
2014,07,11,16,35,26.90
2014,07,11,16,36,26.80
2014,07,11,16,37,26.80
2014,07,11,16,38,26.90
2014,07,11,16,39,26.90
2014,07,11,16,40,26.80
2014,07,11,16,41,26.90
2014,07,11,16,42,26.90
2014,07,11,16,43,26.90
2014,07,11,16,44,26.90
2014,07,11,16,45,27.00
2014,07,11,16,46,27.00
2014,07,11,16,47,27.10
2014,07,11,16,48,27.10
2014,07,11,16,49,27.10
2014,07,11,16,50,27.10
2014,07,11,16,51,27.10
2014,07,11,16,52,27.10
2014,07,11,16,53,27.10
2014,07,11,16,54,27.00
2014,07,11,16,55,27.00
2014,07,11,16,56,27.00
2014,07,11,16,57,27.00
2014,07,11,16,58,26.80
2014,07,11,16,59,26.80
2014,07,11,17,00,26.70
2014,07,11,17,01,26.60
2014,07,11,17,02,26.50
2014,07,11,17,03,26.50
2014,07,11,17,04,26.50
2014,07,11,17,05,26.40
2014,07,11,17,06,26.40
2014,07,11,17,07,26.40
2014,07,11,17,08,26.40
2014,07,11,17,09,26.40
2014,07,11,17,10,26.40
2014,07,11,17,11,26.40
2014,07,11,17,12,26.40
2014,07,11,17,13,26.40
2014,07,11,17,14,26.50
2014,07,11,17,15,26.60
2014,07,11,17,16,26.70
2014,07,11,17,17,26.80
2014,07,11,17,18,26.90
2014,07,11,17,19,27.00